Lancaster, CA

12:53 PM PST on February 20, 2017 (GMT -0800)
Gen Fox

Weather History for KWJF - January, 2012

Change the Weather History Date:

Tuesday, January 10, 2012

  Actual Average Record
Temperature  
Mean Temperature 44 °F 44 °F  
Max Temperature 64 °F 58 °F 72 °F (2014)
Min Temperature 23 °F 31 °F 14 °F (1954)
Degree Days  
Heating Degree Days 21    
Month to date heating degree days 185  
Since 1 July heating degree days 1536  
Cooling Degree Days 0    
Month to date cooling degree days 0  
Year to date cooling degree days 0  
Moisture  
Dew Point 20 °F    
Average Humidity 47    
Maximum Humidity 74    
Minimum Humidity 20    
Precipitation  
Precipitation 0.00 in 0.05 in 1.56 in (2005)
Month to date precipitation 0.00 0.50  
Year to date precipitation 0.00 0.50  
Since 1 July precipitation 1.35  
Snow  
Snow 0.00 in - 4.00 in (1949)
Month to date snowfall 0.0  
Since 1 July snowfall 0.0  
Snow Depth 0.00 in    
Sea Level Pressure  
Sea Level Pressure 30.18 in    
Wind  
Wind Speed 2 mph (WNW)    
Max Wind Speed 8 mph    
Max Gust Speed 9 mph    
Visibility 10 miles    
Events      
T = Trace of Precipitation, MM = Missing Value Source: NWS Daily Summary

Daily Weather History Graph

Daily Weather History Graph

Search for Another Location

Airport or City:

Trip Planner

Search our weather history database for the weather conditions in past years. The results will help you decide how hot, cold, wet, or windy it might be!

Date:

Astronomy

Jan. 10, 2012 Rise Set
Actual Time 7:00 AM PST 5:00 PM PST
Civil Twilight 6:33 AM PST 5:27 PM PST
Nautical Twilight 6:01 AM PST 5:58 PM PST
Astronomical Twilight 5:31 AM PST 6:29 PM PST
Moon 6:51 PM PST (1/10) 7:46 AM PST (1/10)
Length of Visible Light 10h 54m
Length of Day
9h 59m
Full, 97% of the Moon is Illuminated
Jan 10
Full
Jan 16
Last Quarter
Jan 22
New
Jan 30
First Quarter
Feb 7
Full

Hourly Weather History & Observations

Time (PST) Temp. Windchill Dew Point Humidity Pressure Visibility Wind Dir Wind Speed Gust Speed Precip Events Conditions
12:56 AM 32.0 °F - 19.0 °F 59% 30.24 in 10.0 mi Calm Calm - N/A   Clear
1:56 AM 30.0 °F - 18.0 °F 61% 30.25 in 10.0 mi Calm Calm - N/A   Clear
2:56 AM 30.0 °F 25.2 °F 19.0 °F 64% 30.23 in 10.0 mi WNW 4.6 mph - N/A   Clear
3:56 AM 28.9 °F - 19.0 °F 67% 30.23 in 10.0 mi Calm Calm - N/A   Clear
4:56 AM 27.0 °F - 17.1 °F 66% 30.24 in 10.0 mi Calm Calm - N/A   Clear
5:56 AM 26.1 °F 21.9 °F 17.1 °F 69% 30.25 in 10.0 mi West 3.5 mph - N/A   Clear
6:56 AM 24.1 °F 19.7 °F 17.1 °F 75% 30.26 in 10.0 mi WNW 3.5 mph - N/A   Clear
7:56 AM 30.0 °F - 19.9 °F 66% 30.25 in 10.0 mi Calm Calm - N/A   Clear
8:56 AM 39.0 °F 36.8 °F 21.9 °F 50% 30.26 in 10.0 mi NW 3.5 mph - N/A   Clear
9:56 AM 46.0 °F - 21.9 °F 39% 30.25 in 10.0 mi Calm Calm - N/A   Clear
10:56 AM 52.0 °F - 21.9 °F 31% 30.22 in 10.0 mi Calm Calm - N/A   Clear
11:56 AM 57.0 °F - 23.0 °F 27% 30.17 in 10.0 mi NE 4.6 mph - N/A   Clear
12:56 PM 59.0 °F - 21.9 °F 24% 30.13 in 10.0 mi Calm Calm - N/A   Clear
1:56 PM 61.0 °F - 21.9 °F 22% 30.11 in 10.0 mi Calm Calm - N/A   Clear
2:56 PM 63.0 °F - 21.9 °F 21% 30.09 in 10.0 mi Calm Calm - N/A   Clear
3:56 PM 63.0 °F - 21.9 °F 21% 30.10 in 10.0 mi Calm Calm - N/A   Clear
4:56 PM 57.0 °F - 21.9 °F 26% 30.12 in 10.0 mi Calm Calm - N/A   Clear
5:56 PM 50.0 °F - 21.9 °F 33% 30.14 in 10.0 mi West 4.6 mph - N/A   Clear
6:56 PM 45.0 °F - 21.0 °F 39% 30.16 in 10.0 mi Calm Calm - N/A   Clear
7:56 PM 43.0 °F 38.8 °F 21.9 °F 43% 30.16 in 10.0 mi WSW 6.9 mph - N/A   Clear
8:56 PM 37.9 °F 32.1 °F 21.0 °F 51% 30.15 in 10.0 mi West 8.1 mph - N/A   Clear
9:56 PM 37.0 °F 32.4 °F 19.9 °F 50% 30.14 in 10.0 mi West 5.8 mph - N/A   Clear
10:56 PM 37.0 °F - 19.9 °F 50% 30.14 in 10.0 mi Calm Calm - N/A   Clear
11:56 PM 35.1 °F - 19.0 °F 52% 30.12 in 10.0 mi Calm Calm - N/A   Clear